EW3281 Weather Reports


Display with metric or nautical units.
time (UTC)temp
F
wind
direction
speed
MPH
gust
MPH
rain 1hr
in
rain 24hr
in
rain mn
in
humidity
%
barometer
mb
20260905230524 66 333 0.0 0.0 0.00 0.00 0.00 81 1009.8
20260905230024 66 333 0.0 0.0 0.00 0.00 0.00 81 1009.7
20260905225526 66 333 0.0 0.0 0.00 0.00 0.00 80 1009.7
20260905225123 67 333 0.0 0.0 0.00 0.00 0.00 80 1009.7
20260905224526 67 333 0.0 0.0 0.00 0.00 0.00 80 1009.7
20260905224018 67 333 0.0 0.0 0.00 0.00 0.00 79 1009.7
20260905223517 67 333 0.0 0.0 0.00 0.00 0.00 79 1009.7
20260905223017 67 333 0.0 0.0 0.00 0.00 0.00 79 1009.7
20260905222519 68 334 0.0 0.0 0.00 0.00 0.00 78 1009.7
20260905222014 68 333 0.0 0.0 0.00 0.00 0.00 78 1009.6
20260905221514 68 335 0.0 0.0 0.00 0.00 0.00 78 1009.6
20260905221013 68 334 0.0 0.0 0.00 0.00 0.00 77 1009.5
20260905220513 69 4 0.0 0.0 0.00 0.00 0.00 77 1009.4
20260905220015 69 348 0.0 0.0 0.00 0.00 0.00 78 1009.3
20260905215510 69 348 0.0 0.0 0.00 0.00 0.00 77 1009.3
20260905215109 69 348 0.0 0.0 0.00 0.00 0.00 76 1009.0
20260905214509 69 337 0.0 0.0 0.00 0.00 0.00 76 1008.9
20260905214009 69 335 0.0 0.0 0.00 0.00 0.00 77 1008.8
20260905213508 70 339 0.0 0.0 0.00 0.00 0.00 76 1008.7
20260905213007 70 110 0.0 0.0 0.00 0.00 0.00 76 1008.6
20260905212506 70 3 0.0 0.0 0.00 0.00 0.00 76 1008.6
20260905212006 70 3 0.0 0.0 0.00 0.00 0.00 76 1008.5
20260905211506 70 10 0.0 0.0 0.00 0.00 0.00 75 1008.5
20260905211008 70 8 0.0 0.0 0.00 0.00 0.00 76 1008.6
20260905210505 71 5 0.0 0.0 0.00 0.00 0.00 75 1008.5
20260905210010 71 6 0.0 0.0 0.00 0.00 0.00 74 1008.3
20260905205505 72 6 0.0 0.0 0.00 0.00 0.00 74 1008.3
20260905205104 72 14 0.0 0.0 0.00 0.00 0.00 73 1008.1
20260905204503 72 15 0.0 0.0 0.00 0.00 0.00 73 1008.2
20260905204007 72 13 0.0 0.0 0.00 0.00 0.00 73 1008.2
20260905203503 72 345 0.0 0.0 0.00 0.00 0.00 73 1008.1
20260905203003 72 321 0.0 0.0 0.00 0.00 0.00 72 1008.2
20260905202503 73 8 0.0 0.0 0.00 0.00 0.00 72 1008.1
20260905202002 73 11 0.0 0.0 0.00 0.00 0.00 70 1008.1
20260905201503 74 195 0.0 0.0 0.00 0.00 0.00 70 1008.0
20260905201002 74 320 0.0 0.0 0.00 0.00 0.00 70 1007.9
20260905200502 74 321 0.0 0.0 0.00 0.00 0.00 70 1007.9
20260905200002 74 347 0.0 0.0 0.00 0.00 0.00 69 1007.9
20260905195502 75 1 0.0 0.0 0.00 0.00 0.00 68 1007.8
20260905195101 73 248 0.0 0.0 0.00 0.00 0.00 74 1007.9
20260905194600 73 320 0.0 0.0 0.00 0.00 0.00 74 1007.9
20260905194100 72 347 0.0 0.0 0.00 0.00 0.00 72 1007.9
20260905193559 72 345 0.0 0.0 0.00 0.00 0.00 74 1007.9
20260905193109 72 359 0.0 0.0 0.00 0.00 0.00 74 1008.0
20260905192559 72 4 0.0 0.0 0.00 0.00 0.00 74 1007.9
20260905192102 72 335 0.0 0.0 0.00 0.00 0.00 73 1008.0
20260905191600 72 340 0.0 0.0 0.00 0.00 0.00 73 1007.9
20260905191058 72 272 0.0 0.0 0.00 0.00 0.00 73 1007.9
20260905190558 72 2 0.0 0.0 0.00 0.00 0.00 73 1008.0
20260905190101 72 352 0.0 0.0 0.00 0.00 0.00 74 1008.0
20260905185557 72 358 0.0 0.0 0.00 0.00 0.00 73 1008.1
20260905185058 72 257 0.0 0.0 0.00 0.00 0.00 74 1008.1
20260905184559 72 153 0.0 0.0 0.00 0.00 0.00 75 1008.0
20260905184059 71 282 0.0 0.0 0.00 0.00 0.00 75 1008.0
20260905183559 71 252 0.0 0.0 0.00 0.00 0.00 74 1008.1
20260905183100 71 344 0.0 0.0 0.00 0.00 0.00 75 1008.1
20260905182559 70 330 0.0 0.0 0.00 0.00 0.00 78 1008.1
20260905182058 70 209 0.0 0.0 0.00 0.00 0.00 77 1008.2
20260905181602 70 331 0.0 0.0 0.00 0.00 0.00 77 1008.3
20260905181057 70 333 0.0 0.0 0.00 0.00 0.00 79 1008.3
20260905180600 70 320 0.0 0.0 0.00 0.00 0.00 78 1008.3
20260905180100 70 320 0.0 0.0 0.00 0.00 0.00 77 1008.3
20260905175555 71 319 0.0 0.0 0.00 0.00 0.00 77 1008.3
20260905175054 72 287 0.0 0.0 0.00 0.00 0.00 75 1008.1
20260905174555 72 287 0.0 0.0 0.00 0.00 0.00 75 1008.1
20260905174053 72 352 0.0 0.0 0.00 0.00 0.00 75 1008.1
20260905173553 72 345 0.0 0.0 0.00 0.00 0.00 74 1007.9
20260905173052 72 345 0.0 0.0 0.00 0.00 0.00 74 1007.9
20260905172553 72 345 0.0 0.0 0.00 0.00 0.00 73 1007.9
20260905172053 72 341 0.0 0.0 0.00 0.00 0.00 74 1007.9
20260905171552 71 348 0.0 0.0 0.00 0.00 0.00 76 1007.8
20260905171053 71 347 0.0 0.0 0.00 0.00 0.00 75 1007.8
20260905170552 71 334 0.0 0.0 0.00 0.00 0.00 74 1007.8
20260905170057 72 339 0.0 0.0 0.00 0.00 0.00 72 1007.8
20260905165549 72 352 0.0 0.0 0.00 0.00 0.00 72 1007.7
20260905165053 73 274 0.0 0.0 0.00 0.00 0.00 72 1007.5
20260905164550 73 219 0.0 0.0 0.00 0.00 0.00 73 1007.5
20260905164049 73 212 0.0 0.0 0.00 0.00 0.00 74 1007.5
20260905163549 72 197 0.0 0.0 0.00 0.00 0.00 74 1007.6
20260905163049 72 342 0.0 0.0 0.00 0.00 0.00 73 1007.5
20260905162551 73 340 0.0 0.0 0.00 0.00 0.00 74 1007.5
20260905162047 73 338 0.0 0.0 0.00 0.00 0.00 72 1007.5
20260905161547 73 231 0.0 0.0 0.00 0.00 0.00 71 1007.5
20260905161048 74 251 0.0 0.0 0.00 0.00 0.00 69 1007.3
20260905160547 74 345 0.0 0.0 0.00 0.00 0.00 69 1007.3
20260905160050 74 215 0.0 0.0 0.00 0.00 0.00 71 1007.3
20260905155546 74 342 0.0 0.0 0.00 0.00 0.00 71 1007.3
20260905155046 73 333 0.0 0.0 0.00 0.00 0.00 71 1007.3
20260905154549 73 346 0.0 0.0 0.00 0.00 0.00 71 1007.3
20260905154043 73 160 0.0 0.0 0.00 0.00 0.00 76 1007.4
20260905153546 72 347 0.0 0.0 0.00 0.00 0.00 74 1007.4
20260905153041 72 342 0.0 0.0 0.00 0.00 0.00 74 1007.4
20260905152541 73 345 0.0 0.0 0.00 0.00 0.00 72 1007.3
20260905152041 73 342 0.0 0.0 0.00 0.00 0.00 72 1007.3
20260905151543 73 331 0.0 0.0 0.00 0.00 0.00 72 1007.2
20260905151040 73 335 0.0 0.0 0.00 0.00 0.00 73 1007.3
20260905150541 73 299 0.0 0.0 0.00 0.00 0.00 73 1007.2
20260905150047 73 336 0.0 0.0 0.00 0.00 0.00 73 1007.2
20260905145542 73 6 0.0 0.0 0.00 0.00 0.00 74 1007.2
20260905145040 72 340 0.0 0.0 0.00 0.00 0.00 75 1007.2
20260905144547 72 340 0.0 0.0 0.00 0.00 0.00 75 1007.2
20260905144044 72 4 0.0 0.0 0.00 0.00 0.00 76 1007.3
20260905143540 71 328 0.0 0.0 0.00 0.00 0.00 77 1007.3
20260905143049 71 203 0.0 0.0 0.00 0.00 0.00 77 1007.4
20260905142539 71 221 0.0 0.0 0.00 0.00 0.00 77 1007.4
20260905142041 70 203 0.0 0.0 0.00 0.00 0.00 76 1007.3
20260905141540 70 192 0.0 0.0 0.00 0.00 0.00 78 1007.4
20260905141041 70 181 0.0 0.0 0.00 0.00 0.00 78 1007.3
20260905140540 70 345 0.0 0.0 0.00 0.00 0.00 78 1007.3
20260905140038 70 5 0.0 0.0 0.00 0.00 0.00 79 1007.4
20260905135538 69 44 0.0 0.0 0.00 0.00 0.00 79 1007.5
20260905135041 69 3 0.0 0.0 0.00 0.00 0.00 79 1007.3
20260905134538 69 355 0.0 0.0 0.00 0.00 0.00 78 1007.3
20260905134039 69 8 0.0 0.0 0.00 0.00 0.00 80 1007.3
20260905133538 69 349 0.0 0.0 0.00 0.00 0.00 80 1007.3
20260905133039 69 333 0.0 0.0 0.00 0.00 0.00 81 1007.3
20260905132540 68 350 0.0 0.0 0.00 0.00 0.00 81 1007.4
20260905132043 68 148 0.0 0.0 0.00 0.00 0.00 82 1007.5
20260905131547 68 129 0.0 0.0 0.00 0.00 0.00 82 1007.5
20260905131037 68 321 0.0 0.0 0.00 0.00 0.00 83 1007.5
20260905130537 67 183 0.0 0.0 0.00 0.00 0.00 82 1007.4
20260905130036 67 318 0.0 0.0 0.00 0.00 0.00 83 1007.4
20260905125536 67 208 0.0 0.0 0.00 0.00 0.00 84 1007.3
20260905125036 66 342 0.0 0.0 0.00 0.00 0.00 85 1007.3
20260905124540 66 205 0.0 0.0 0.00 0.00 0.00 85 1007.3
20260905124039 66 351 0.0 0.0 0.00 0.00 0.00 86 1007.3
20260905123535 65 186 0.0 0.0 0.00 0.00 0.00 87 1007.2
20260905123035 65 329 0.0 0.0 0.00 0.00 0.00 89 1007.2
20260905122534 64 146 0.0 0.0 0.00 0.00 0.00 91 1007.2
20260905122035 64 143 0.0 0.0 0.00 0.00 0.00 92 1007.1
20260905121535 63 155 0.0 0.0 0.00 0.00 0.00 93 1007.1
20260905121034 63 170 0.0 0.0 0.00 0.00 0.00 94 1007.1
20260905120540 63 171 0.0 0.0 0.00 0.00 0.00 94 1006.9
20260905120034 62 171 0.0 0.0 0.00 0.00 0.00 95 1006.9
20260905115536 62 219 0.0 0.0 0.00 0.00 0.00 95 1007.0
20260905115034 62 219 0.0 0.0 0.00 0.00 0.00 95 1007.0
20260905114545 61 219 0.0 0.0 0.00 0.00 0.00 95 1007.0
20260905114040 61 219 0.0 0.0 0.00 0.00 0.00 95 1006.9
20260905113541 61 219 0.0 0.0 0.00 0.00 0.00 95 1006.9
20260905113040 61 219 0.0 0.0 0.00 0.00 0.00 95 1006.9
20260905112539 61 219 0.0 0.0 0.00 0.00 0.00 95 1006.9
20260905112039 60 219 0.0 0.0 0.00 0.00 0.00 95 1006.9
20260905111552 60 219 0.0 0.0 0.00 0.00 0.00 95 1006.9
20260905111039 60 219 0.0 0.0 0.00 0.00 0.00 95 1006.8
20260905110538 60 219 0.0 0.0 0.00 0.00 0.00 95 1006.8
20260905110038 60 219 0.0 0.0 0.00 0.00 0.00 95 1006.7
20260905105539 60 219 0.0 0.0 0.00 0.00 0.00 95 1006.7
20260905105039 60 219 0.0 0.0 0.00 0.00 0.00 95 1006.6
20260905104532 60 219 0.0 0.0 0.00 0.00 0.00 95 1006.6
20260905104032 60 219 0.0 0.0 0.00 0.00 0.00 95 1006.6
20260905103532 60 219 0.0 0.0 0.00 0.00 0.00 95 1006.5
20260905103032 60 219 0.0 0.0 0.00 0.00 0.00 95 1006.4
20260905102534 60 219 0.0 0.0 0.00 0.00 0.00 95 1006.4
20260905102031 60 219 0.0 0.0 0.00 0.00 0.00 94 1006.4
20260905101541 60 219 0.0 0.0 0.00 0.00 0.00 94 1006.3
20260905101029 60 219 0.0 0.0 0.00 0.00 0.00 94 1006.4
20260905100529 60 219 0.0 0.0 0.00 0.00 0.00 94 1006.4
20260905100029 60 219 0.0 0.0 0.00 0.00 0.00 94 1006.3
20260905095529 61 219 0.0 0.0 0.00 0.00 0.00 94 1006.3
20260905095028 61 219 0.0 0.0 0.00 0.00 0.00 94 1006.4
20260905094528 61 219 0.0 0.0 0.00 0.00 0.00 94 1006.4
20260905094030 61 219 0.0 0.0 0.00 0.00 0.00 94 1006.3
20260905093528 61 219 0.0 0.0 0.00 0.00 0.00 94 1006.3
20260905093028 61 219 0.0 0.0 0.00 0.00 0.00 94 1006.3
20260905092527 61 219 0.0 0.0 0.00 0.00 0.00 94 1006.2
20260905092027 61 219 0.0 0.0 0.00 0.00 0.00 94 1006.3
20260905091527 61 219 0.0 0.0 0.00 0.00 0.00 94 1006.2
20260905091027 61 219 0.0 0.0 0.00 0.00 0.00 94 1006.1
20260905090528 61 235 0.0 0.0 0.00 0.00 0.00 94 1006.2
20260905090026 61 235 0.0 0.0 0.00 0.00 0.00 94 1006.3
20260905085530 61 235 0.0 0.0 0.00 0.00 0.00 94 1006.2
20260905085029 61 235 0.0 0.0 0.00 0.00 0.00 94 1006.3
20260905084527 61 235 0.0 0.0 0.00 0.00 0.00 94 1006.3
20260905084026 61 235 0.0 0.0 0.00 0.00 0.00 94 1006.3
20260905083527 61 235 0.0 0.0 0.00 0.00 0.00 94 1006.3
20260905083034 61 235 0.0 0.0 0.00 0.00 0.00 94 1006.3
20260905082525 61 235 0.0 0.0 0.00 0.00 0.00 94 1006.3
20260905082030 61 235 0.0 0.0 0.00 0.00 0.00 94 1006.3
20260905081526 61 235 0.0 0.0 0.00 0.00 0.00 94 1006.3
20260905081024 61 235 0.0 0.0 0.00 0.00 0.00 94 1006.3
20260905080524 61 235 0.0 0.0 0.00 0.00 0.00 94 1006.2
20260905080034 61 235 0.0 0.0 0.00 0.00 0.00 94 1006.2
20260905075528 61 235 0.0 0.0 0.00 0.00 0.00 94 1006.2
20260905075025 62 235 0.0 0.0 0.00 0.00 0.00 94 1006.3
20260905074522 62 235 0.0 0.0 0.00 0.00 0.00 94 1006.3
20260905074026 62 235 0.0 0.0 0.00 0.00 0.00 94 1006.4
20260905073524 62 235 0.0 0.0 0.00 0.00 0.00 94 1006.4
20260905073025 62 235 0.0 0.0 0.00 0.00 0.00 94 1006.5
20260905072521 62 235 0.0 0.0 0.00 0.00 0.00 94 1006.4
20260905072021 62 235 0.0 0.0 0.00 0.00 0.00 94 1006.4
20260905071520 62 235 0.0 0.0 0.00 0.00 0.00 94 1006.4
20260905071020 62 235 0.0 0.0 0.00 0.00 0.00 94 1006.4
20260905070520 62 235 0.0 0.0 0.00 0.00 0.00 94 1006.4
20260905070020 62 235 0.0 0.0 0.00 0.00 0.00 94 1006.5
20260905065519 62 235 0.0 0.0 0.00 0.00 0.00 93 1006.6
20260905065024 62 235 0.0 0.0 0.00 0.00 0.00 93 1006.7
20260905064528 62 235 0.0 0.0 0.00 0.00 0.00 93 1006.7
20260905064020 62 235 0.0 0.0 0.00 0.00 0.00 93 1006.8
20260905063519 62 235 0.0 0.0 0.00 0.00 0.00 93 1006.8
20260905063020 62 235 0.0 0.0 0.00 0.00 0.00 93 1006.9
20260905062522 62 235 0.0 0.0 0.00 0.00 0.00 93 1006.9
20260905062019 62 235 0.0 0.0 0.00 0.00 0.00 93 1007.0
20260905061518 63 235 0.0 0.0 0.00 0.00 0.00 93 1007.0
20260905061017 63 235 0.0 0.0 0.00 0.00 0.00 93 1006.9
20260905060520 63 235 0.0 0.0 0.00 0.00 0.00 93 1007.0
20260905060030 63 235 0.0 0.0 0.00 0.00 0.00 93 1007.1
20260905055516 63 235 0.0 0.0 0.00 0.00 0.00 92 1007.0
20260905055017 63 235 0.0 0.0 0.00 0.00 0.00 92 1007.0
20260905054517 63 235 0.0 0.0 0.00 0.00 0.00 92 1007.0
20260905054017 63 235 0.0 0.0 0.00 0.00 0.00 92 1007.0
20260905053516 63 235 0.0 0.0 0.00 0.00 0.00 92 1007.1
20260905053028 63 235 0.0 0.0 0.00 0.00 0.00 92 1007.2
20260905052519 63 235 0.0 0.0 0.00 0.00 0.00 92 1007.2
20260905052015 63 235 0.0 0.0 0.00 0.00 0.00 91 1007.2
20260905051515 63 235 0.0 0.0 0.00 0.00 0.00 91 1007.1
20260905051014 64 235 0.0 0.0 0.00 0.00 0.00 91 1007.2
20260905050516 64 235 0.0 0.0 0.00 0.00 0.00 91 1007.1
20260905050014 64 235 0.0 0.0 0.00 0.00 0.00 91 1007.2
20260905045513 64 235 0.0 0.0 0.00 0.00 0.00 91 1007.2
20260905045013 64 235 0.0 0.0 0.00 0.00 0.00 90 1007.3
20260905044512 64 235 0.0 0.0 0.00 0.00 0.00 90 1007.3
20260905044012 64 235 0.0 0.0 0.00 0.00 0.00 90 1007.3
20260905043511 65 235 0.0 0.0 0.00 0.00 0.00 90 1007.3
20260905043011 65 235 0.0 0.0 0.00 0.00 0.00 90 1007.2
20260905042510 65 235 0.0 0.0 0.00 0.00 0.00 90 1007.1
20260905042009 65 235 0.0 0.0 0.00 0.00 0.00 89 1007.1
20260905041509 65 235 0.0 0.0 0.00 0.00 0.00 89 1007.2
20260905041008 65 235 0.0 0.0 0.00 0.00 0.00 89 1007.2
20260905040508 65 235 0.0 0.0 0.00 0.00 0.00 88 1007.3
20260905040016 65 235 0.0 0.0 0.00 0.00 0.00 88 1007.2
20260905035507 65 235 0.0 0.0 0.00 0.00 0.00 88 1007.2
20260905035006 66 235 0.0 0.0 0.00 0.00 0.00 87 1007.2
20260905034507 66 235 0.0 0.0 0.00 0.00 0.00 87 1007.2
20260905034005 66 235 0.0 0.0 0.00 0.00 0.00 87 1007.1
20260905033505 66 235 0.0 0.0 0.00 0.00 0.00 86 1007.1
20260905033004 67 235 0.0 0.0 0.00 0.00 0.00 86 1007.0
20260905032502 67 235 0.0 0.0 0.00 0.00 0.00 86 1007.0
20260905032005 67 235 0.0 0.0 0.00 0.00 0.00 85 1006.9
20260905031602 67 235 0.0 0.0 0.00 0.00 0.00 85 1007.0
20260905031100 68 235 0.0 0.0 0.00 0.00 0.00 84 1007.0
20260905030559 68 235 0.0 0.0 0.00 0.00 0.00 84 1006.9
20260905030121 68 235 0.0 0.0 0.00 0.00 0.00 83 1007.0
20260905025557 69 235 0.0 0.0 0.00 0.00 0.00 82 1007.0
20260905025056 69 235 0.0 0.0 0.00 0.00 0.00 82 1007.0
20260905024058 69 235 0.0 0.0 0.00 0.00 0.00 82 1006.8
20260905023601 69 235 0.0 0.0 0.00 0.00 0.00 83 1006.8
20260905023058 69 235 0.0 0.0 0.00 0.00 0.00 82 1006.8
20260905022557 69 235 0.0 0.0 0.00 0.00 0.00 82 1006.9
20260905022057 69 235 0.0 0.0 0.00 0.00 0.00 81 1006.9
20260905021557 69 235 0.0 0.0 0.00 0.00 0.00 81 1006.8
20260905021055 69 235 0.0 0.0 0.00 0.00 0.00 81 1006.9
20260905020558 70 235 0.0 0.0 0.00 0.00 0.00 79 1006.9
20260905020104 70 235 0.0 0.0 0.00 0.00 0.00 79 1007.0
20260905015553 70 235 0.0 0.0 0.00 0.00 0.00 78 1007.1
20260905015054 71 235 0.0 0.0 0.00 0.00 0.00 77 1007.1
20260905014051 71 235 0.0 0.0 0.00 0.00 0.00 77 1007.2
20260905013547 71 235 0.0 0.0 0.00 0.00 0.00 76 1007.2
20260905013046 72 235 0.0 0.0 0.00 0.00 0.00 76 1007.3
20260905012545 72 235 0.0 0.0 0.00 0.00 0.00 76 1007.3
20260905012045 71 235 0.0 0.0 0.00 0.00 0.00 76 1007.3
20260905011544 72 235 0.0 0.0 0.00 0.00 0.00 74 1007.3
20260905011042 72 235 0.0 0.0 0.00 0.00 0.00 74 1007.3
20260905010542 72 235 0.0 0.0 0.00 0.00 0.00 73 1007.3
20260905010040 72 235 0.0 0.0 0.00 0.00 0.00 73 1007.3
20260905005541 72 235 0.0 0.0 0.00 0.00 0.00 72 1007.3
20260905005039 73 235 0.0 0.0 0.00 0.00 0.00 71 1007.3
20260905004038 73 235 0.0 0.0 0.00 0.00 0.00 71 1007.3
20260905003537 73 235 0.0 0.0 0.00 0.00 0.00 70 1007.2
20260905003036 74 235 0.0 0.0 0.00 0.00 0.00 69 1007.1
20260905002536 74 235 0.0 0.0 0.00 0.00 0.00 68 1007.0
20260905002034 74 235 0.0 0.0 0.00 0.00 0.00 68 1007.0
20260905001534 74 238 0.0 0.0 0.00 0.00 0.00 68 1006.9
20260905001036 74 237 0.0 0.0 0.00 0.00 0.00 67 1006.9
20260905000534 74 238 0.0 0.0 0.00 0.00 0.00 67 1006.9
20260905000033 74 224 0.0 0.0 0.00 0.00 0.00 68 1006.8
20260904235531 75 224 0.0 0.0 0.00 0.00 0.00 67 1006.8
20260904235031 75 224 0.0 0.0 0.00 0.00 0.00 66 1006.7
20260904234033 75 224 0.0 0.0 0.00 0.00 0.00 64 1006.6
20260904233532 75 224 0.0 0.0 0.00 0.00 0.00 64 1006.6
20260904233038 75 221 0.0 0.0 0.00 0.00 0.00 66 1006.6
20260904232531 76 221 0.0 0.0 0.00 0.00 0.00 66 1006.6
20260904232029 76 221 0.0 0.0 0.00 0.00 0.00 65 1006.6
20260904231529 77 221 0.0 0.0 0.00 0.00 0.00 64 1006.5
20260904231026 77 221 0.0 0.0 0.00 0.00 0.00 64 1006.5